www.pogodaiklimat.ru

Погода и климат >> Архив погоды >> Россия >> Камчатский край >> Сосновка


ПОГОДА в Сосновке

  • Прогноз погоды в Сосновке
  • Монитор погоды в Сосновке

АРХИВ ПОГОДЫ в Сосновке

Время (UTC), дата Ветер
(напр.,м/с)
 
Видим.   Явления Облачность Т
(С)
Тd
(С)
f
(%)
Тe
(С)
Тes
(С)
Комфортность P
(гПа)
Po
(гПа)
Тmin
(С)
Tmax
(С)
R
(мм)
R24
(мм)
S
(см)
09 14.07 З 1 50 км 8/0
[Ci fib]
+13.5 +11.4 87 +14 +14 1014.1 1009.3 +18.7
12 14.07 СЗ 2 50 км 8/0
[Ci fib]
+11.4 +9.7 89 +10 +10 1014.1 1009.3
15 14.07 СЗ 2 50 км ясно +9.6 +8.5 93 +8 +8 1014.2 1009.3
18 14.07 штиль 0 50 км 3/0
[Ci fib]
+7.6 +7.5 99 +7 +7 1012.9 1008.0
21 14.07 З 5 50 км 3/0
[Ci fib]
+15.9 +10.6 71 +15 +18 1011.6 1006.9 +7.2
00 15.07 ЮЗ 5 50 км 6/0
[Ci fib]
+21.5 +12.7 57 +24 +31 комфорт 1010.0 1005.4
03 15.07 З 5 50 км 9/0
[Ci fib]
+25.3 +13.2 47 +27 +28 жарко 1009.9 1005.3
06 15.07 ЮЗ 4 50 км ясно +25.0 +13.8 50 +27 +31 жарко 1008.6 1004.0
09 15.07 З 5 50 км 6/0
[Ci fib]
+18.3 +11.8 66 +18 +18 1010.0 1005.3 +26.3
12 15.07 штиль 0 50 км 8/0
[Ci fib]
+12.6 +11.3 92 +12 +12 1011.5 1006.7
15 15.07 штиль 0 50 км 6/0
[Ci fib]
+10.2 +9.9 98 +9 +9 1011.5 1006.7
18 15.07 штиль 0 50 км 6/0
[Ci fib]
+8.8 +8.7 99 +8 +8 1011.6 1006.7
21 15.07 ЮВ 1 50 км ясно +16.6 +13.1 80 +17 +24 1010.7 1006.0 +8.6
00 16.07 В 1 50 км 10/0
[Cs]
+23.9 +16.8 64 +27 +41 жарко 1010.2 1005.6
03 16.07 В 2 50 км 10/0
[Cs]
+26.7 +16.0 52 +30 +30 душно 1009.9 1005.3
06 16.07 В 2 50 км 10/0
[Cs]
+25.3 +15.0 53 +28 +28 жарко 1009.9 1005.3
09 16.07 штиль 0 50 км ясно +17.5 +14.6 83 +17 +18 1011.4 1006.7 +27.5
12 16.07 СЗ 2 50 км 9 баллов +14.5 +12.4 87 +14 +14 1012.8 1008.0
15 16.07 С 1 50 км 9/0
[Ci fib]
+11.1 +10.9 99 +11 +11 1012.8 1008.0
18 16.07 штиль 0 500 м туман н/о +10.0 +9.8 99 +9 1014.2 1009.3
21 16.07 ЮЗ 1 50 км {туман} 5/0
[Cs]
+17.7 +14.5 82 +19 +25 1012.8 1008.1 +9.8
00 17.07 ЮВ 1 50 км {туман} 5/0
[Cs]
+23.7 +16.3 63 +27 +42 жарко 1012.0 1007.4
03 17.07 ЮВ 3 50 км 5/1 1000 м
[Cu hum Cs]
+23.6 +15.9 62 +27 +33 жарко 1012.6 1008.0
06 17.07 В 3 50 км 5/1 1000 м
[Cu hum Cs]
+20.1 +14.0 68 +23 +25 комфорт 1012.7 1008.0
09 17.07 В 2 50 км ясно +14.2 +12.9 92 +14 +14 1012.5 1007.7 +24.7
12 17.07 С 1 200 м туман ?/? +12.0 +11.7 98 +12 +12 1013.7 1008.9
15 17.07 С 1 500 м туман ?/? +11.0 +10.8 99 +11 +11 1014.1 1009.3
18 17.07 СЗ 1 200 м туман ?/? +9.4 +9.3 99 +9 +9 1014.2 1009.3
21 17.07 Ю 1 200 м туман ?/? +11.6 +11.4 99 +11 +11 1013.8 1009.0 +9.2
00 18.07 ЮВ 2 50 км {туман} ясно +20.4 +14.1 67 +23 +38 комфорт 1013.0 1008.3
03 18.07 ЮВ 2 50 км 9 баллов +23.7 +15.5 60 +27 +28 жарко 1013.9 1009.3
06 18.07 З 6-10
{10}
50 км 9/1 1000 м
[Sc Ci fib]
+22.5 +11.5 50 +25 +26 комфорт 1012.5 1007.8
09 18.07 З 4 50 км 9/1 1000 м
[Cu hum Ci fib]
+19.5 +12.5 64 +21 +21 комфорт 1014.0 1009.3 +26.0
12 18.07 СЗ 2 50 км 6/0
[Ci fib]
+13.7 +12.4 92 +13 +13 1016.8 1012.0
15 18.07 С 1 50 км 5 баллов +13.4 +12.6 95 +13 +13 1016.8 1012.0
18 18.07 СЗ 1 50 км ясно +12.8 +12.2 96 +13 +13 1018.1 1013.3
21 18.07 СВ 2 50 км 3/0
[Ci fib]
+20.7 +15.2 71 +24 +30 комфорт 1017.5 1012.8 +12.5
00 19.07 ЮЗ 4 50 км 9/1 1000 м
[Sc Ci fib]
+25.0 +14.8 53 +28 +35 жарко 1017.2 1012.6
03 19.07 ЮЗ 5 50 км 8/5 1000 м
[Sc Ci fib]
+26.3 +15.9 53 +30 +32 душно 1017.9 1013.3
06 19.07 З 7 50 км 3/3 1000 м
[Sc]
+24.6 +15.2 56 +28 +29 душно 1017.9 1013.3
09 19.07 ЮЗ 3
{10}
50 км 3/1 1000 м
[Sc Ci fib]
+20.7 +13.9 65 +24 +24 комфорт 1019.4 1014.7 +27.2
12 19.07 СЗ 2 50 км 3/3 1000 м
[Sc]
+16.2 +13.9 86 +16 +16 1020.8 1016.0
15 19.07 СЗ 1 50 км 3/3 1000 м
[Sc]
+13.5 +12.9 96 +14 +14 1020.8 1016.0
18 19.07 СЗ 1 50 км 8/4 1000 м
[Sc Ac trans]
+13.1 +12.8 98 +13 +13 1020.8 1016.0
21 19.07 штиль 0 50 км 10/8 600 м
[Sc Ac und]
+16.8 +15.5 92 +17 +17 1020.7 1015.9 +12.2
00 20.07 СВ 1 50 км в посл. час ливневой дождь 10/8 600 м
[Sc diur, vesp Ac und]
+19.9 +16.5 81 +24 +25 комфорт 1020.3 1015.6
03 20.07 С 1 50 км слаб. ливневой дождь 10 баллов +21.4 +16.8 75 +25 +25 комфорт 1020.7 1016.0
06 20.07 СВ 1 50 км слаб. ливневой дождь 10 баллов +20.6 +17.4 82 +25 +25 комфорт 1020.7 1016.0
09 20.07 СЗ 2 50 км слаб. ливневой дождь 9/8 1000 м
[Cb cap Ac trans]
+16.8 +16.2 96 +17 +17 1020.8 1016.0 +21.6 0.8
12 20.07 штиль 0 4000 м слаб. ливневой дождь 10/10 300 м
[Cb cap]
+15.6 +15.3 98 +15 +15 1019.3 1014.5
15 20.07 СЗ 1 50 км {ливн. осадки} 9/1 1000 м
[Sc diur, vesp Ac trans Ci fib]
+14.4 +14.2 99 +15 +15 1019.5 1014.7
18 20.07 С 1 50 км 9 баллов +14.4 +14.2 99 +15 +15 1019.5 1014.7
21 20.07 З 1 50 км 9/6 1000 м
[Sc Ac trans]
+17.9 +16.4 91 +19 +20 1017.4 1012.7 +14.2 1
00 21.07 З 3 50 км 9/6 1000 м
[Sc Ac trans Ci fib]
+21.0 +15.0 69 +25 +28 комфорт 1015.9 1011.2
03 21.07 З 5 50 км 9 баллов +20.2 +13.9 67 +22 +23 комфорт 1015.4 1010.7

 

Местоположение метеостанции Сосновка (Камчатский край, Россия): широта 53.08 долгота 158.30 высота над уровнем моря 40 м.

В архиве по умолчанию представлена погода в Сосновке за последнюю неделю. Архивные данные за месяц целиком и за предыдущие месяцы, начиная с января 2011 года, Вы можете получить, выбрав интересующий диапазон дат из раскрывающегося списка и нажав кнопку "Ввод!".


*Определитесь, кто Вы:
робот инопланетянин человек

Внимание! Время в таблицах - всемирное. Для получения местного времени необходимо прибавить поправку, которая равна 12 ч.

Смотрите также архив погоды в соседних городах и на ближайших метеорологических станциях:

Погода в Петропавловск-Камч. 2 (Камчатский край, Россия) (13 км)
Погода в Петропавловск-Камчатском (Камчатский край, Россия) (31 км)
Погода в Петропавловском Маяке (Камчатский край, Россия) (35 км)
Погода в Начиках (Камчатский край, Россия) (40 км)
Погода в Пущино (Камчатский край, Россия) (124 км)
Погода в Большерецке (Камчатский край, Россия) (137 км)
Погода в Водопадной (Камчатский край, Россия) (142 км)
Погода в Семячике (Камчатский край, Россия) (157 км)
Погода в Мильково (Камчатский край, Россия) (178 км)
Погода в Соболево (Камчатский край, Россия) (208 км)

Пояснения к столбцам:

Ветер - указаны скорость ветра в м/с - средняя за 10 мин, порывы в срок и между сроками (в фигурных скобках) и направление, откуда дует ветер: С - северный, СВ - северо-восточный, В - восточный, ЮВ - юго-восточный, Ю - южный, ЮЗ - юго-западный, З - западный, СЗ - северо-западный.
Видимость - горизонтальная дальность видимости в метрах или километрах. При видимости от 1 до 10 км при отсутствии осадков обычно наблюдается дымка, при ухудшении видимости до 1 км и менее - туман. В сухую погоду видимость может ухудшаться дымом, пылью или мглою.
Явления - указаны атмосферные явления, наблюдавшиеся в срок или в последний час перед сроком; фигурными скобками обозначены явления, наблюдавшиеся между сроками (за 1-3 часа до срока); квадратными скобками обозначены град или гололедные отложения с указанием их диаметра в мм.
Облачность - указаны через наклонную черту общая и нижняя облачность в баллах и высота нижней границы облаков в метрах; квадратными скобками обозначены формы облаков: Ci - перистые, Cs - перисто-слоистые, Cc - перисто-кучевые, Ac - высококучевые, As - высокослоистые, Sc - слоисто-кучевые, Ns - слоисто-дождевые, Cu - кучевые, Cb - кучево-дождевые. Подробнее классификацию облаков см. в Атласе облаков (PDF).
T - Температура воздуха - температура, измеренная на высоте 2 м над землей.
Td - Температура точки росы - температура, при понижении до которой содержащийся в воздухе водяной пар достигнет насыщения.
f - Относительная влажность воздуха - влажноcть воздуха, измеренная на высоте 2 м над землей.
Te - Эффективная температура - температура, которую ощущает одетый по сезону человек в тени. Характеристика душности погоды. При расчете учитывается влияние влажности воздуха и скорости ветра на теплоощущения человека.
Tes - Эффективная температура на солнце - температура, которую ощущает человек, с поправкой на солнечный нагрев. Характеристика знойности погоды. Зависит от высоты солнца над горизонтом, облачности и скорости ветра. Ночью, в пасмурную погоду, а также при ветре 12 м/с и более поправка равна нулю.
P - Атмосферное давление - приведенное к уровню моря атмосферное давление.
Po - Атмосферное давление - измеренное на уровне метеостанции атмосферное давление.
Tmin - Минимальная температура - минимум температуры воздуха на высоте 2 м над землей.
Tmax - Максимальная температура - максимум температуры воздуха на высоте 2 м над землей.
R - Количество осадков - Количество выпавших осадков за период времени, мм. При наведении курсора мыши на число - период времени, за который выпало указанное количество осадков.
R24 - Количество осадков - Количество выпавших осадков за 24 часа, мм.
S - Снежный покров - Высота снежного покрова, см. При наведении курсора мыши на число - состояние снежного покрова и степень покрытия местности в баллах.